Tracking 19170 objects as of 22-May-2018
HD Live streaming from Space Station
objects crossing your sky now

INTELSAT 904

Track INTELSAT 904 now!
INTELSAT 904 is classified as:


NORAD ID: 27380
Int'l Code: 2002-007A
Perigee: 35,781.9 km
Apogee: 35,805.7 km
Inclination: 0.0 °
Period: 1,436.1 minutes
Semi major axis: 42164 km
RCS: 11.3214 m2 (large)
Launch date: February 23, 2002
Source: International Telecommunications Satellite Organization (ITSO)
Launch site: FRENCH GUIANA (FRGUI)

76 C-band, 22 Ku-band, broadcasting, business services, direct-to-home TV broadcasting, telecommunications, VSAT networks; Indian Ocean region.
aabbcc
Your satellite tracking list
Your tracking list is empty




NASA's NSSDC Master Catalog

Two Line Element Set (TLE):
1 27380U 02007A   18142.56697029 +.00000119 +00000-0 +00000-0 0  9990
2 27380 000.0149 247.7977 0002823 172.1379 069.4104 01.00271459022214
Source of the keplerian elements: AFSPC